contact:dominique.lefevre@mio.osupytheas.fr, maurice.libes@osupytheas.fr, didier.mallarino@osupytheas.fr
Project:EMSO http://www.emso-fr.org/EMSO-France
Depth: 2436.0 m
Title:EMSO Ligure Ouest : Data MII capteur AQUADOPP
Date,Latitude,Longitude,X_East,Y_North,Z_Up,Amplitude_X,Amplitude_Y,Amplitude_Z,Batterie,SoundSpeed,Heading,Pitch,Roll,Pressure,TIS,Speed,Direction
, degrees North, degrees East, m.s-1, m.s-1,m.s-1, 1, 1, 1, Volt, m.s-1, degree, degree, degree, dbar, degree_C, m.s-1, degree
2019-12-11T00:04:03,42.805,6.029,0.053,0.0,-0.027,99.0,103.0,98.0,13.4,1505.2,325.2,-0.7,1.8,2470.06,13.3,0.053,90.0
2019-12-11T00:07:03,42.805,6.029,0.068,0.006,-0.005,100.0,103.0,99.0,13.4,1505.3,326.9,-0.7,1.8,2470.06,13.31,0.068,85.0
2019-12-11T00:10:03,42.805,6.029,0.042,-0.001,-0.041,101.0,103.0,97.0,13.4,1505.3,327.6,-0.7,1.8,2470.052,13.31,0.042,91.4
2019-12-11T00:13:03,42.805,6.029,0.079,-0.013,-0.003,101.0,102.0,97.0,13.4,1505.3,325.6,-0.7,1.8,2470.07,13.32,0.08,99.3
2019-12-11T00:16:03,42.805,6.029,0.064,0.0,-0.021,100.0,104.0,97.0,13.4,1505.3,328.0,-0.7,1.9,2470.054,13.32,0.063,90.0
2019-12-11T00:19:03,42.805,6.029,0.06,-0.01,-0.001,101.0,103.0,99.0,13.3,1505.3,327.4,-0.7,1.8,2470.005,13.32,0.06,99.5
2019-12-11T00:22:03,42.805,6.029,0.051,0.003,-0.052,101.0,103.0,98.0,13.4,1505.3,324.1,-0.7,1.8,2470.038,13.32,0.051,86.6
2019-12-11T00:25:03,42.805,6.029,0.049,0.006,-0.025,99.0,104.0,98.0,13.4,1505.3,324.3,-0.7,1.8,2470.042,13.32,0.049,83.0
2019-12-11T00:28:03,42.805,6.029,0.04,-0.01,-0.057,99.0,103.0,99.0,13.4,1505.3,327.2,-0.7,1.8,2470.055,13.32,0.041,104.0
2019-12-11T00:31:03,42.805,6.029,0.07,0.001,-0.015,99.0,104.0,99.0,13.4,1505.3,327.0,-0.7,1.9,2470.042,13.32,0.07,89.2
2019-12-11T00:34:03,42.805,6.029,0.036,-0.02,-0.03,102.0,103.0,97.0,13.3,1505.3,326.6,-0.7,1.8,2470.043,13.32,0.041,119.1
2019-12-11T00:37:03,42.805,6.029,0.057,-0.016,-0.032,101.0,104.0,99.0,13.4,1505.3,327.0,-0.7,1.9,2470.055,13.32,0.059,105.7
2019-12-11T00:40:03,42.805,6.029,0.067,0.0,-0.03,101.0,102.0,99.0,13.4,1505.3,327.4,-0.7,1.8,2470.033,13.32,0.066,90.0
2019-12-11T00:43:03,42.805,6.029,0.05,-0.019,-0.025,100.0,104.0,98.0,13.3,1505.3,326.0,-0.7,1.8,2470.054,13.32,0.053,110.8
2019-12-11T00:46:03,42.805,6.029,0.058,0.004,-0.027,99.0,103.0,99.0,13.4,1505.3,328.1,-0.7,1.8,2470.017,13.32,0.058,86.1
2019-12-11T00:49:03,42.805,6.029,0.065,0.006,-0.028,100.0,102.0,99.0,13.3,1505.3,324.4,-0.7,1.8,2469.999,13.32,0.065,84.7
2019-12-11T00:52:03,42.805,6.029,0.065,-0.016,0.002,100.0,103.0,98.0,13.4,1505.3,324.5,-0.7,1.8,2470.009,13.32,0.066,103.8
2019-12-11T00:55:03,42.805,6.029,0.049,-0.01,-0.035,101.0,104.0,98.0,13.3,1505.3,324.9,-0.7,1.8,2470.029,13.32,0.05,101.5
2019-12-11T00:58:03,42.805,6.029,0.052,0.015,-0.009,99.0,103.0,98.0,13.3,1505.3,325.9,-0.7,1.8,2470.057,13.32,0.054,73.9
2019-12-11T01:04:03,42.805,6.029,0.049,0.013,-0.024,102.0,105.0,99.0,13.4,1505.2,326.8,-0.8,1.9,2470.079,13.3,0.05,75.1
2019-12-11T01:07:04,42.805,6.029,0.062,-0.008,-0.015,100.0,104.0,97.0,13.4,1505.3,326.0,-0.7,1.8,2470.033,13.31,0.062,97.3
2019-12-11T01:10:03,42.805,6.029,0.052,0.001,-0.005,101.0,104.0,98.0,13.4,1505.3,326.3,-0.7,1.9,2470.026,13.31,0.052,88.9
2019-12-11T01:13:03,42.805,6.029,0.045,0.018,-0.025,100.0,102.0,99.0,13.4,1505.3,324.5,-0.7,1.8,2470.066,13.32,0.048,68.2
2019-12-11T01:16:03,42.805,6.029,0.037,-0.008,-0.026,101.0,105.0,98.0,13.4,1505.3,324.9,-0.7,1.9,2470.074,13.32,0.037,102.2
2019-12-11T01:19:03,42.805,6.029,0.06,0.008,-0.005,100.0,105.0,98.0,13.4,1505.3,325.9,-0.7,1.8,2470.051,13.32,0.06,82.4
2019-12-11T01:22:03,42.805,6.029,0.04,0.005,-0.026,101.0,103.0,100.0,13.3,1505.3,328.5,-0.7,1.8,2470.038,13.32,0.04,82.9
2019-12-11T01:25:03,42.805,6.029,0.066,0.006,-0.027,101.0,105.0,98.0,13.3,1505.3,324.2,-0.7,1.9,2470.045,13.32,0.066,84.8
2019-12-11T01:28:03,42.805,6.029,0.062,-0.007,-0.012,100.0,104.0,99.0,13.4,1505.3,326.1,-0.7,1.9,2470.076,13.32,0.062,96.4
2019-12-11T01:31:03,42.805,6.029,0.052,0.01,-0.026,101.0,105.0,99.0,13.3,1505.3,327.2,-0.8,1.8,2470.064,13.32,0.052,79.1
2019-12-11T01:34:03,42.805,6.029,0.084,-0.003,-0.002,100.0,104.0,98.0,13.4,1505.3,328.5,-0.7,1.8,2470.017,13.32,0.084,92.0
2019-12-11T01:37:03,42.805,6.029,0.054,0.023,-0.025,101.0,105.0,98.0,13.4,1505.3,326.5,-0.7,1.8,2470.018,13.32,0.058,66.9
2019-12-11T01:40:03,42.805,6.029,0.054,-0.004,-0.038,99.0,106.0,98.0,13.4,1505.3,323.8,-0.7,1.8,2470.085,13.32,0.054,94.2
2019-12-11T01:43:03,42.805,6.029,0.054,0.006,-0.046,102.0,104.0,98.0,13.4,1505.3,326.9,-0.7,1.8,2470.034,13.32,0.054,83.7
2019-12-11T01:46:03,42.805,6.029,0.038,-0.012,-0.05,102.0,105.0,96.0,13.3,1505.3,327.0,-0.7,1.8,2470.048,13.32,0.039,107.5
2019-12-11T01:49:03,42.805,6.029,0.053,-0.013,-0.011,99.0,106.0,98.0,13.4,1505.3,327.0,-0.7,1.8,2470.071,13.32,0.054,103.8
2019-12-11T01:52:03,42.805,6.029,0.052,-0.016,-0.052,100.0,104.0,99.0,13.4,1505.3,327.7,-0.7,1.8,2470.058,13.32,0.054,107.1
2019-12-11T01:55:03,42.805,6.029,0.052,0.004,-0.024,101.0,104.0,99.0,13.4,1505.3,325.8,-0.7,1.8,2470.044,13.32,0.052,85.6
2019-12-11T01:58:03,42.805,6.029,0.05,0.003,-0.018,101.0,105.0,98.0,13.3,1505.3,326.9,-0.7,1.8,2470.082,13.32,0.05,86.6
2019-12-11T02:04:03,42.805,6.029,0.054,-0.011,-0.052,100.0,105.0,98.0,13.3,1505.2,324.3,-0.7,1.9,2470.083,13.3,0.055,101.5
2019-12-11T02:07:03,42.805,6.029,0.05,0.017,-0.049,101.0,106.0,99.0,13.3,1505.3,326.0,-0.7,1.8,2470.034,13.31,0.052,71.2
2019-12-11T02:10:03,42.805,6.029,0.059,-0.003,-0.003,102.0,104.0,99.0,13.3,1505.3,325.9,-0.7,1.8,2470.104,13.31,0.059,92.9
2019-12-11T02:13:03,42.805,6.029,0.061,0.005,-0.01,101.0,106.0,98.0,13.4,1505.3,328.6,-0.7,1.9,2470.08,13.32,0.061,85.3
2019-12-11T02:16:03,42.805,6.029,0.067,0.003,0.01,101.0,104.0,98.0,13.4,1505.3,326.0,-0.7,1.9,2470.108,13.32,0.067,87.4
2019-12-11T02:19:03,42.805,6.029,0.073,-0.001,0.013,100.0,105.0,99.0,13.4,1505.3,326.9,-0.7,1.8,2470.086,13.32,0.073,90.8
2019-12-11T02:22:03,42.805,6.029,0.056,-0.008,-0.044,100.0,106.0,98.0,13.4,1505.3,328.6,-0.7,1.8,2470.089,13.32,0.056,98.1
2019-12-11T02:25:03,42.805,6.029,0.07,-0.001,-0.024,100.0,104.0,99.0,13.4,1505.3,325.1,-0.7,1.8,2470.034,13.32,0.07,90.8
2019-12-11T02:28:03,42.805,6.029,0.047,-0.023,-0.031,100.0,104.0,99.0,13.4,1505.3,327.8,-0.7,1.8,2470.061,13.32,0.052,116.1
2019-12-11T02:31:03,42.805,6.029,0.049,-0.015,-0.032,100.0,104.0,99.0,13.4,1505.3,324.2,-0.7,1.8,2470.096,13.32,0.051,107.0
2019-12-11T02:34:03,42.805,6.029,0.047,0.01,0.008,100.0,104.0,99.0,13.3,1505.3,325.2,-0.7,1.8,2470.047,13.32,0.048,78.0
2019-12-11T02:37:03,42.805,6.029,0.036,-0.011,-0.042,101.0,107.0,99.0,13.3,1505.3,324.6,-0.7,1.9,2470.089,13.32,0.037,107.0
2019-12-11T02:40:03,42.805,6.029,0.07,0.015,-0.014,101.0,105.0,98.0,13.4,1505.3,325.0,-0.7,1.8,2470.086,13.32,0.071,77.9
2019-12-11T02:43:03,42.805,6.029,0.072,0.006,-0.032,99.0,106.0,98.0,13.4,1505.3,323.6,-0.7,1.9,2470.088,13.32,0.072,85.2
2019-12-11T02:46:03,42.805,6.029,0.067,0.016,-0.016,99.0,102.0,100.0,13.3,1505.3,324.7,-0.7,1.9,2470.087,13.32,0.068,76.6
2019-12-11T02:49:03,42.805,6.029,0.063,0.004,-0.022,99.0,103.0,100.0,13.4,1505.3,323.7,-0.7,1.8,2470.052,13.32,0.063,86.4
2019-12-11T02:52:03,42.805,6.029,0.064,-0.025,-0.026,101.0,105.0,98.0,13.4,1505.3,326.5,-0.7,1.8,2470.048,13.32,0.068,111.3
2019-12-11T02:55:03,42.805,6.029,0.069,-0.006,-0.037,100.0,105.0,98.0,13.3,1505.3,327.7,-0.7,1.8,2470.147,13.32,0.069,95.0
2019-12-11T02:58:03,42.805,6.029,0.082,-0.002,-0.047,101.0,104.0,98.0,13.4,1505.3,326.1,-0.7,1.8,2470.119,13.32,0.082,91.4
2019-12-11T03:04:03,42.805,6.029,0.069,-0.004,-0.065,101.0,102.0,99.0,13.4,1505.2,326.7,-0.8,1.8,2470.119,13.3,0.069,93.3
2019-12-11T03:07:03,42.805,6.029,0.081,0.007,-0.019,100.0,105.0,98.0,13.4,1505.3,324.1,-0.7,1.8,2470.076,13.31,0.081,85.1
2019-12-11T03:10:03,42.805,6.029,0.072,-0.005,-0.038,101.0,104.0,99.0,13.4,1505.3,324.3,-0.7,1.8,2470.135,13.31,0.072,94.0
2019-12-11T03:13:03,42.805,6.029,0.089,-0.015,-0.024,100.0,104.0,98.0,13.3,1505.3,326.7,-0.7,1.8,2470.142,13.31,0.09,99.6
2019-12-11T03:16:03,42.805,6.029,0.064,-0.005,-0.025,101.0,103.0,98.0,13.4,1505.3,326.4,-0.7,1.8,2470.093,13.32,0.064,94.5
2019-12-11T03:19:03,42.805,6.029,0.094,-0.016,-0.068,99.0,105.0,98.0,13.4,1505.3,326.8,-0.7,1.8,2470.136,13.32,0.095,99.7
2019-12-11T03:22:03,42.805,6.029,0.075,-0.004,-0.02,99.0,104.0,99.0,13.4,1505.3,324.2,-0.7,1.8,2470.105,13.32,0.075,93.0
2019-12-11T03:25:03,42.805,6.029,0.041,0.007,-0.024,100.0,105.0,99.0,13.3,1505.3,325.0,-0.7,1.9,2470.137,13.32,0.041,80.3
2019-12-11T03:28:03,42.805,6.029,0.077,0.008,-0.015,100.0,103.0,99.0,13.3,1505.3,323.0,-0.7,1.9,2470.134,13.32,0.077,84.1
2019-12-11T03:31:03,42.805,6.029,0.096,-0.003,-0.026,100.0,103.0,98.0,13.4,1505.3,324.2,-0.7,1.8,2470.156,13.32,0.096,91.8
2019-12-11T03:34:03,42.805,6.029,0.063,0.001,-0.059,101.0,104.0,99.0,13.4,1505.3,323.7,-0.7,1.9,2470.121,13.32,0.063,89.1
2019-12-11T03:37:03,42.805,6.029,0.057,0.026,-0.045,100.0,102.0,100.0,13.3,1505.3,325.4,-0.7,1.8,2470.148,13.32,0.062,65.5
2019-12-11T03:40:03,42.805,6.029,0.057,0.002,-0.026,100.0,105.0,97.0,13.4,1505.3,327.6,-0.7,1.8,2470.216,13.32,0.057,88.0
2019-12-11T03:43:03,42.805,6.029,0.074,-0.017,-0.044,101.0,103.0,98.0,13.4,1505.3,326.9,-0.7,1.8,2470.147,13.32,0.075,102.9
2019-12-11T03:46:03,42.805,6.029,0.074,-0.003,-0.047,100.0,104.0,99.0,13.4,1505.3,328.3,-0.7,1.8,2470.153,13.32,0.074,92.3
2019-12-11T03:52:03,42.805,6.029,0.063,-0.003,-0.032,100.0,105.0,99.0,13.3,1505.2,326.7,-0.7,1.8,2470.15,13.3,0.063,92.7
2019-12-11T03:55:03,42.805,6.029,0.08,-0.011,-0.03,101.0,103.0,99.0,13.4,1505.3,327.3,-0.7,1.8,2470.2,13.31,0.08,97.8
2019-12-11T03:58:03,42.805,6.029,0.057,0.007,-0.041,101.0,103.0,98.0,13.4,1505.3,326.0,-0.7,1.9,2470.155,13.31,0.057,83.0
2019-12-11T04:04:03,42.805,6.029,0.071,-0.001,0.0,100.0,106.0,98.0,13.3,1505.2,328.3,-0.8,1.8,2470.219,13.3,0.071,90.8
2019-12-11T04:07:03,42.805,6.029,0.082,-0.019,-0.021,101.0,103.0,99.0,13.3,1505.3,328.4,-0.7,1.8,2470.181,13.31,0.084,103.0
2019-12-11T04:10:03,42.805,6.029,0.07,-0.005,-0.033,99.0,104.0,99.0,13.4,1505.3,325.8,-0.7,1.8,2470.207,13.31,0.07,94.1
2019-12-11T04:13:03,42.805,6.029,0.075,0.007,-0.017,102.0,102.0,99.0,13.4,1505.3,326.1,-0.7,1.8,2470.179,13.31,0.075,84.7
2019-12-11T04:16:03,42.805,6.029,0.064,-0.002,-0.027,100.0,105.0,100.0,13.4,1505.3,326.9,-0.7,1.8,2470.21,13.32,0.064,91.8
2019-12-11T04:19:03,42.805,6.029,0.058,-0.006,-0.034,102.0,103.0,98.0,13.4,1505.3,323.6,-0.7,1.8,2470.187,13.32,0.058,95.9
2019-12-11T04:22:03,42.805,6.029,0.064,0.012,-0.032,98.0,104.0,99.0,13.4,1505.3,324.8,-0.7,1.8,2470.234,13.32,0.065,79.4
2019-12-11T04:25:03,42.805,6.029,0.083,-0.01,-0.017,100.0,103.0,99.0,13.3,1505.3,324.4,-0.7,1.8,2470.203,13.32,0.083,96.9
2019-12-11T04:28:03,42.805,6.029,0.054,0.004,-0.019,100.0,103.0,99.0,13.4,1505.3,326.7,-0.7,1.8,2470.177,13.32,0.054,85.8
2019-12-11T04:31:03,42.805,6.029,0.098,-0.009,-0.054,101.0,102.0,99.0,13.4,1505.3,327.2,-0.7,1.8,2470.183,13.32,0.098,95.2
2019-12-11T04:34:03,42.805,6.029,0.076,0.012,-0.029,101.0,103.0,99.0,13.4,1505.3,326.7,-0.7,1.8,2470.178,13.32,0.076,81.0
2019-12-11T04:37:03,42.805,6.029,0.075,-0.009,-0.044,100.0,103.0,99.0,13.4,1505.3,326.9,-0.7,1.8,2470.147,13.32,0.075,96.8
2019-12-11T04:40:03,42.805,6.029,0.077,-0.005,-0.019,100.0,103.0,99.0,13.4,1505.3,324.0,-0.7,1.8,2470.188,13.32,0.077,93.7
2019-12-11T04:43:03,42.805,6.029,0.074,0.005,-0.038,100.0,103.0,98.0,13.4,1505.3,325.0,-0.7,1.8,2470.203,13.32,0.074,86.1
2019-12-11T04:46:03,42.805,6.029,0.085,-0.011,-0.025,100.0,104.0,98.0,13.4,1505.3,324.2,-0.7,1.8,2470.211,13.32,0.085,97.4
2019-12-11T04:49:03,42.805,6.029,0.098,0.005,0.003,100.0,103.0,100.0,13.4,1505.3,325.3,-0.7,1.8,2470.176,13.32,0.098,87.1
2019-12-11T04:52:03,42.805,6.029,0.064,-0.013,-0.062,100.0,103.0,98.0,13.3,1505.3,323.4,-0.8,1.8,2470.181,13.32,0.065,101.5
2019-12-11T04:55:03,42.805,6.029,0.08,0.0,-0.011,100.0,102.0,98.0,13.4,1505.3,324.7,-0.7,1.8,2470.193,13.32,0.079,90.0
2019-12-11T04:58:03,42.805,6.029,0.076,-0.012,-0.019,100.0,103.0,98.0,13.3,1505.3,327.7,-0.7,1.8,2470.203,13.32,0.076,99.0
2019-12-11T05:04:03,42.805,6.029,0.069,-0.013,-0.031,99.0,103.0,98.0,13.4,1505.2,328.3,-0.7,1.8,2470.24,13.3,0.07,100.7
2019-12-11T05:07:03,42.805,6.029,0.074,0.0,-0.042,100.0,102.0,98.0,13.4,1505.3,324.8,-0.7,1.8,2470.265,13.31,0.073,90.0
2019-12-11T05:10:03,42.805,6.029,0.07,-0.001,-0.023,101.0,104.0,99.0,13.3,1505.3,324.1,-0.7,1.9,2470.258,13.31,0.07,90.8
2019-12-11T05:13:03,42.805,6.029,0.082,0.006,0.009,100.0,103.0,98.0,13.4,1505.3,327.9,-0.7,1.8,2470.215,13.31,0.082,85.8
2019-12-11T05:16:03,42.805,6.029,0.066,-0.002,-0.001,99.0,103.0,99.0,13.3,1505.3,323.0,-0.7,1.8,2470.227,13.32,0.066,91.7
2019-12-11T05:19:03,42.805,6.029,0.076,0.004,-0.047,99.0,103.0,98.0,13.4,1505.3,326.1,-0.7,1.8,2470.253,13.32,0.076,87.0
2019-12-11T05:22:03,42.805,6.029,0.106,-0.01,-0.023,100.0,103.0,99.0,13.4,1505.3,325.0,-0.7,1.8,2470.286,13.32,0.106,95.4
2019-12-11T05:25:03,42.805,6.029,0.084,-0.012,-0.034,100.0,103.0,99.0,13.3,1505.3,326.3,-0.7,1.8,2470.223,13.32,0.084,98.1
2019-12-11T05:28:03,42.805,6.029,0.077,-0.004,-0.045,100.0,102.0,98.0,13.4,1505.3,325.9,-0.7,1.8,2470.221,13.32,0.077,93.0
2019-12-11T05:31:03,42.805,6.029,0.102,0.013,-0.023,101.0,102.0,98.0,13.4,1505.3,328.6,-0.7,1.8,2470.223,13.32,0.102,82.7
2019-12-11T05:34:03,42.805,6.029,0.072,0.009,-0.033,98.0,104.0,99.0,13.3,1505.3,324.7,-0.7,1.8,2470.261,13.32,0.072,82.9
2019-12-11T05:37:03,42.805,6.029,0.104,-0.014,-0.042,102.0,103.0,99.0,13.3,1505.3,324.8,-0.7,1.9,2470.227,13.32,0.104,97.7
2019-12-11T05:40:03,42.805,6.029,0.073,0.002,-0.032,100.0,103.0,98.0,13.4,1505.3,324.7,-0.7,1.8,2470.237,13.32,0.073,88.4
2019-12-11T05:43:03,42.805,6.029,0.089,-0.014,-0.068,100.0,103.0,99.0,13.3,1505.3,325.3,-0.7,1.8,2470.227,13.32,0.09,98.9
2019-12-11T05:46:03,42.805,6.029,0.084,0.011,-0.03,101.0,101.0,99.0,13.4,1505.3,327.2,-0.7,1.9,2470.192,13.32,0.084,82.5
2019-12-11T05:49:03,42.805,6.029,0.063,-0.007,-0.023,101.0,102.0,99.0,13.4,1505.3,326.4,-0.7,1.9,2470.224,13.32,0.063,96.3
2019-12-11T05:52:03,42.805,6.029,0.102,0.009,-0.002,99.0,102.0,98.0,13.4,1505.3,326.7,-0.7,1.9,2470.283,13.32,0.102,85.0
2019-12-11T05:55:03,42.805,6.029,0.074,-0.016,-0.036,99.0,103.0,98.0,13.4,1505.3,326.6,-0.7,1.8,2470.269,13.32,0.075,102.2
2019-12-11T05:58:03,42.805,6.029,0.093,-0.029,-0.03,100.0,104.0,98.0,13.4,1505.3,326.4,-0.8,1.8,2470.276,13.32,0.097,107.3
2019-12-11T06:04:03,42.805,6.029,0.079,0.011,-0.023,99.0,102.0,98.0,13.4,1505.2,325.5,-0.8,1.8,2470.294,13.3,0.079,82.1
2019-12-11T06:07:03,42.805,6.029,0.083,-0.026,-0.031,99.0,103.0,99.0,13.3,1505.3,326.4,-0.7,1.9,2470.219,13.31,0.086,107.4
2019-12-11T06:10:03,42.805,6.029,0.064,-0.002,-0.031,99.0,101.0,99.0,13.4,1505.3,325.9,-0.7,1.8,2470.195,13.31,0.064,91.8
2019-12-11T06:13:03,42.805,6.029,0.071,-0.002,-0.044,100.0,102.0,98.0,13.3,1505.3,327.7,-0.7,1.8,2470.241,13.31,0.071,91.6
2019-12-11T06:16:03,42.805,6.029,0.064,0.009,-0.024,101.0,102.0,98.0,13.3,1505.3,325.9,-0.7,1.9,2470.243,13.32,0.064,82.0
2019-12-11T06:19:03,42.805,6.029,0.075,0.0,-0.024,100.0,104.0,98.0,13.4,1505.3,323.2,-0.7,1.8,2470.259,13.32,0.074,90.0
2019-12-11T06:22:03,42.805,6.029,0.093,-0.007,-0.034,100.0,103.0,98.0,13.4,1505.3,323.9,-0.7,1.9,2470.206,13.32,0.093,94.3
2019-12-11T06:25:03,42.805,6.029,0.075,-0.01,-0.036,100.0,101.0,99.0,13.4,1505.3,326.4,-0.7,1.8,2470.266,13.32,0.075,97.6
2019-12-11T06:28:03,42.805,6.029,0.058,-0.001,-0.01,101.0,102.0,98.0,13.4,1505.3,328.1,-0.7,1.8,2470.249,13.32,0.058,91.0
2019-12-11T06:31:03,42.805,6.029,0.059,0.0,-0.013,101.0,103.0,99.0,13.4,1505.3,326.7,-0.7,1.8,2470.247,13.32,0.058,90.0
2019-12-11T06:34:03,42.805,6.029,0.083,-0.01,-0.045,99.0,103.0,98.0,13.3,1505.3,327.3,-0.7,1.8,2470.269,13.32,0.083,96.9
2019-12-11T06:37:03,42.805,6.029,0.074,-0.006,-0.064,100.0,103.0,98.0,13.4,1505.3,325.8,-0.7,1.8,2470.246,13.32,0.074,94.6
2019-12-11T06:40:03,42.805,6.029,0.062,0.002,-0.001,101.0,102.0,99.0,13.3,1505.3,326.4,-0.7,1.8,2470.238,13.32,0.062,88.2
2019-12-11T06:43:03,42.805,6.029,0.093,-0.004,-0.007,99.0,103.0,98.0,13.4,1505.3,324.7,-0.7,1.9,2470.25,13.32,0.093,92.5
2019-12-11T06:46:03,42.805,6.029,0.063,0.0,-0.03,100.0,102.0,99.0,13.4,1505.3,325.4,-0.8,1.8,2470.242,13.32,0.062,90.0
2019-12-11T06:49:03,42.805,6.029,0.067,-0.007,-0.031,100.0,103.0,99.0,13.3,1505.3,324.5,-0.7,1.8,2470.264,13.32,0.067,96.0
2019-12-11T06:52:03,42.805,6.029,0.08,-0.008,-0.03,100.0,103.0,99.0,13.4,1505.3,327.0,-0.7,1.8,2470.258,13.32,0.08,95.7
2019-12-11T06:55:03,42.805,6.029,0.064,-0.01,-0.057,100.0,104.0,99.0,13.3,1505.3,327.6,-0.7,1.8,2470.278,13.32,0.064,98.9
2019-12-11T06:58:03,42.805,6.029,0.066,-0.009,-0.016,101.0,102.0,99.0,13.3,1505.3,325.2,-0.7,1.8,2470.241,13.32,0.066,97.8
2019-12-11T07:04:03,42.805,6.029,0.084,-0.026,-0.068,100.0,102.0,98.0,13.3,1505.2,328.4,-0.7,1.8,2470.282,13.3,0.087,107.2
2019-12-11T07:07:03,42.805,6.029,0.084,-0.022,-0.036,99.0,102.0,98.0,13.3,1505.3,328.2,-0.7,1.8,2470.261,13.31,0.086,104.7
2019-12-11T07:10:03,42.805,6.029,0.071,0.005,-0.04,100.0,102.0,98.0,13.4,1505.3,325.0,-0.7,1.9,2470.248,13.31,0.071,86.0
2019-12-11T07:13:03,42.805,6.029,0.082,-0.017,-0.037,100.0,102.0,99.0,13.3,1505.3,324.3,-0.7,1.8,2470.316,13.31,0.083,101.7
2019-12-11T07:16:03,42.805,6.029,0.094,0.003,-0.015,101.0,103.0,98.0,13.4,1505.3,325.9,-0.7,1.8,2470.238,13.32,0.094,88.2
2019-12-11T07:19:03,42.805,6.029,0.072,-0.032,-0.041,101.0,102.0,97.0,13.4,1505.3,327.0,-0.7,1.8,2470.249,13.32,0.078,114.0
2019-12-11T07:22:03,42.805,6.029,0.074,-0.001,-0.012,99.0,102.0,99.0,13.4,1505.3,325.3,-0.7,1.8,2470.282,13.32,0.074,90.8
2019-12-11T07:25:03,42.805,6.029,0.048,-0.004,-0.037,100.0,102.0,99.0,13.4,1505.3,324.8,-0.7,1.8,2470.205,13.32,0.048,94.8
2019-12-11T07:28:03,42.805,6.029,0.081,-0.012,-0.028,100.0,103.0,99.0,13.4,1505.3,328.5,-0.7,1.8,2470.247,13.32,0.081,98.4
2019-12-11T07:31:03,42.805,6.029,0.059,-0.018,-0.049,101.0,102.0,99.0,13.4,1505.3,328.3,-0.7,1.8,2470.272,13.32,0.061,107.0
2019-12-11T07:34:03,42.805,6.029,0.096,-0.027,-0.035,101.0,103.0,98.0,13.3,1505.3,324.2,-0.7,1.8,2470.264,13.32,0.099,105.7
2019-12-11T07:37:03,42.805,6.029,0.091,-0.004,-0.025,101.0,101.0,99.0,13.3,1505.3,326.0,-0.7,1.8,2470.243,13.32,0.091,92.5
2019-12-11T07:40:03,42.805,6.029,0.105,-0.003,-0.006,100.0,102.0,99.0,13.3,1505.3,323.9,-0.7,1.8,2470.266,13.32,0.105,91.6
2019-12-11T07:43:03,42.805,6.029,0.071,-0.011,-0.053,101.0,102.0,100.0,13.4,1505.3,324.3,-0.7,1.8,2470.263,13.32,0.071,98.8
2019-12-11T07:46:03,42.805,6.029,0.084,-0.01,-0.03,102.0,101.0,100.0,13.4,1505.3,324.7,-0.8,1.8,2470.252,13.32,0.084,96.8
2019-12-11T07:49:03,42.805,6.029,0.091,-0.008,-0.048,101.0,103.0,99.0,13.4,1505.3,325.4,-0.7,1.8,2470.247,13.32,0.091,95.0
2019-12-11T07:52:03,42.805,6.029,0.079,-0.013,-0.017,100.0,103.0,99.0,13.4,1505.3,325.7,-0.7,1.8,2470.194,13.32,0.08,99.3
2019-12-11T07:55:03,42.805,6.029,0.1,-0.004,-0.022,102.0,101.0,99.0,13.4,1505.3,325.2,-0.7,1.9,2470.242,13.32,0.1,92.3
2019-12-11T07:58:03,42.805,6.029,0.092,0.0,-0.017,101.0,102.0,99.0,13.3,1505.3,325.6,-0.7,1.8,2470.232,13.32,0.092,90.0
2019-12-11T08:04:03,42.805,6.029,0.043,0.001,-0.044,100.0,102.0,99.0,13.3,1505.2,327.3,-0.8,1.8,2470.278,13.3,0.043,88.7
2019-12-11T08:07:03,42.805,6.029,0.071,-0.011,-0.035,101.0,104.0,99.0,13.4,1505.3,327.2,-0.7,1.8,2470.249,13.31,0.071,98.8
2019-12-11T08:10:03,42.805,6.029,0.058,-0.014,-0.054,100.0,103.0,99.0,13.4,1505.3,328.0,-0.7,1.9,2470.244,13.31,0.059,103.6
2019-12-11T08:13:03,42.805,6.029,0.059,-0.005,-0.051,100.0,101.0,100.0,13.3,1505.3,326.8,-0.7,1.8,2470.225,13.31,0.059,94.8
2019-12-11T08:16:03,42.805,6.029,0.077,-0.007,-0.032,101.0,102.0,100.0,13.4,1505.3,327.7,-0.7,1.8,2470.281,13.32,0.077,95.2
2019-12-11T08:19:03,42.805,6.029,0.098,-0.004,-0.027,101.0,102.0,100.0,13.4,1505.3,323.7,-0.7,1.8,2470.25,13.32,0.098,92.3
2019-12-11T08:22:03,42.805,6.029,0.092,0.0,-0.03,101.0,102.0,99.0,13.4,1505.3,325.4,-0.7,1.9,2470.253,13.32,0.092,90.0
2019-12-11T08:25:03,42.805,6.029,0.055,-0.019,-0.05,101.0,104.0,99.0,13.4,1505.3,326.0,-0.8,1.9,2470.253,13.32,0.058,109.1
2019-12-11T08:31:03,42.805,6.029,0.077,-0.019,0.008,102.0,102.0,99.0,13.4,1505.2,324.9,-0.8,1.8,2470.284,13.3,0.079,103.9
2019-12-11T08:34:03,42.805,6.029,0.05,0.004,-0.037,101.0,103.0,99.0,13.4,1505.3,326.6,-0.7,1.9,2470.265,13.31,0.05,85.4
2019-12-11T08:37:03,42.805,6.029,0.064,-0.02,-0.055,101.0,102.0,99.0,13.4,1505.3,324.8,-0.7,1.8,2470.186,13.31,0.067,107.4
2019-12-11T08:40:03,42.805,6.029,0.075,-0.01,-0.018,99.0,103.0,99.0,13.4,1505.3,323.7,-0.7,1.8,2470.267,13.31,0.075,97.6
2019-12-11T08:43:03,42.805,6.029,0.085,-0.009,-0.008,100.0,103.0,99.0,13.4,1505.3,327.1,-0.7,1.9,2470.255,13.32,0.085,96.0
2019-12-11T08:46:03,42.805,6.029,0.08,-0.028,-0.055,102.0,103.0,98.0,13.3,1505.3,325.4,-0.7,1.8,2470.224,13.32,0.084,109.3
2019-12-11T08:49:03,42.805,6.029,0.037,-0.022,-0.074,101.0,102.0,99.0,13.4,1505.3,326.1,-0.7,1.8,2470.253,13.32,0.043,120.7
2019-12-11T08:52:03,42.805,6.029,0.039,-0.018,-0.068,100.0,104.0,99.0,13.4,1505.3,323.3,-0.7,1.9,2470.267,13.32,0.042,114.8
2019-12-11T08:55:03,42.805,6.029,0.058,-0.031,-0.047,102.0,103.0,98.0,13.3,1505.3,326.4,-0.7,1.8,2470.24,13.32,0.065,118.1
2019-12-11T08:58:03,42.805,6.029,0.093,-0.022,-0.02,102.0,103.0,99.0,13.4,1505.3,327.9,-0.7,1.8,2470.227,13.32,0.095,103.3
2019-12-11T09:04:03,42.805,6.029,0.051,-0.014,-0.051,101.0,102.0,99.0,13.4,1505.2,324.9,-0.7,1.8,2470.246,13.3,0.052,105.3
2019-12-11T09:07:03,42.805,6.029,0.083,-0.007,-0.03,101.0,102.0,99.0,13.4,1505.3,324.8,-0.7,1.9,2470.231,13.31,0.083,94.8
2019-12-11T09:10:03,42.805,6.029,0.093,-0.015,-0.001,101.0,102.0,99.0,13.3,1505.3,324.3,-0.7,1.8,2470.236,13.31,0.094,99.2
2019-12-11T09:13:03,42.805,6.029,0.08,-0.016,-0.038,101.0,103.0,99.0,13.3,1505.3,327.3,-0.7,1.9,2470.222,13.31,0.081,101.3
2019-12-11T09:16:03,42.805,6.029,0.061,-0.004,-0.024,101.0,103.0,99.0,13.4,1505.3,324.9,-0.7,1.8,2470.21,13.32,0.061,93.7
2019-12-11T09:19:03,42.805,6.029,0.083,-0.015,-0.054,101.0,102.0,100.0,13.4,1505.3,328.6,-0.7,1.9,2470.209,13.32,0.084,100.2
2019-12-11T09:22:03,42.805,6.029,0.057,-0.025,-0.038,102.0,102.0,99.0,13.4,1505.3,323.2,-0.7,1.9,2470.216,13.32,0.062,113.7
2019-12-11T09:25:03,42.805,6.029,0.049,-0.017,-0.025,102.0,103.0,99.0,13.4,1505.3,324.9,-0.7,1.8,2470.198,13.32,0.051,109.1
2019-12-11T09:28:03,42.805,6.029,0.074,-0.02,-0.029,102.0,102.0,98.0,13.3,1505.3,326.1,-0.7,1.8,2470.219,13.32,0.076,105.1
2019-12-11T09:31:03,42.805,6.029,0.067,-0.021,-0.052,102.0,101.0,98.0,13.4,1505.3,327.0,-0.7,1.8,2470.173,13.32,0.07,107.4
2019-12-11T09:34:03,42.805,6.029,0.07,-0.025,-0.011,102.0,103.0,99.0,13.4,1505.3,328.6,-0.7,1.8,2470.196,13.32,0.074,109.6
2019-12-11T09:37:03,42.805,6.029,0.084,-0.019,-0.04,98.0,103.0,99.0,13.3,1505.3,323.3,-0.7,1.8,2470.262,13.32,0.086,102.7
2019-12-11T09:40:03,42.805,6.029,0.066,-0.012,-0.035,101.0,104.0,100.0,13.4,1505.3,326.9,-0.7,1.8,2470.192,13.32,0.067,100.3
2019-12-11T09:43:03,42.805,6.029,0.087,-0.02,-0.006,102.0,102.0,100.0,13.3,1505.3,328.2,-0.7,1.8,2470.195,13.32,0.089,102.9
2019-12-11T09:46:03,42.805,6.029,0.11,-0.005,-0.028,101.0,102.0,99.0,13.4,1505.3,325.5,-0.8,1.8,2470.214,13.32,0.11,92.6
2019-12-11T09:49:03,42.805,6.029,0.085,-0.015,-0.014,102.0,102.0,99.0,13.4,1505.3,323.1,-0.7,1.9,2470.212,13.32,0.086,100.0
2019-12-11T09:52:03,42.805,6.029,0.099,-0.037,-0.022,103.0,101.0,100.0,13.4,1505.3,327.0,-0.7,1.8,2470.16,13.32,0.105,110.5
2019-12-11T09:55:03,42.805,6.029,0.092,-0.004,-0.016,102.0,102.0,100.0,13.4,1505.3,324.6,-0.7,1.9,2470.202,13.32,0.092,92.5
2019-12-11T09:58:03,42.805,6.029,0.065,-0.018,-0.021,101.0,103.0,99.0,13.4,1505.3,327.8,-0.7,1.8,2470.205,13.32,0.067,105.5
2019-12-11T10:01:03,42.805,6.029,0.082,-0.033,-0.047,101.0,102.0,99.0,13.4,1505.3,323.5,-0.7,1.8,2470.137,13.32,0.088,111.9
2019-12-11T10:04:03,42.805,6.029,0.075,-0.049,-0.031,101.0,102.0,100.0,13.4,1505.3,326.5,-0.7,1.8,2470.175,13.32,0.089,123.2
2019-12-11T10:07:03,42.805,6.029,0.046,0.001,-0.05,103.0,103.0,100.0,13.4,1505.3,326.3,-0.7,1.8,2470.192,13.32,0.046,88.8
2019-12-11T10:10:03,42.805,6.029,0.052,-0.021,-0.025,101.0,103.0,99.0,13.3,1505.3,326.3,-0.7,1.9,2470.19,13.32,0.056,112.0